Location: Gleizolles
(44.4833°N, 6.7667°E)
Time: 02:01:24
(UTC+00:00)

Vanguard 1 Rocket - Pass Details

Date: 27 June 2024
Orbit: 650 x 4219 km, 34.3° (Epoch: 15 July)

Event Time Altitude Azimuth Distance (km) Brightness Sun altitude
Rises 04:31:01 0° 274° (W) 6,463 11.2 5.4°
Reaches altitude 10° 04:34:47 10° 270° (W) 5,834 11.0 6.0°
Maximum altitude 04:53:58 53° 201° (SSW) 4,570 10.8 9.1°
Drops below altitude 10° 05:18:28 10° 134° (SE) 7,187 12.4 13.1°
Sets 05:23:50 0° 130° (SE) 7,969 12.6 14.0°
